Dewpoint
32 35 35 33 34 33 30 28 28 30 37 40 42 39 43 53 55 55 55 56 57 59 60 61 64 65 67 68 70 71 72 73 72 70 70 70 70 69 70 69 71 71 72 74
32 34 35 35 35 33 30 28 27 30 36 40 42 39 45 49 54 55 55 55 57 59 60 61 63 64 66 68 70 72 73 74 74 70 71 71 71 71 70 69 71 73 72 74
29 32 35 35 34 33 29 27 27 27 31 41 39 36 42 47 52 55 57 56 56 58 59 59 61 64 66 67 69 70 72 73 71 72 73 73 72 72 68 68 69 70 70 72
27 32 34 34 33 32 28 27 25 24 30 29 37 24 33 39 47 51 54 56 54 56 58 58 56 60 63 66 67 70 72 73 72 75 72 73 70 67 64 67 69 68 71 72
27 30 32 32 31 32 29 26 24 27 26 27 33 25 31 42 39 46 50 52 52 51 52 54 55 57 62 65 65 69 72 74 74 74 73 72 72 69 67 68 72 73 73 72
28 32 32 31 30 29 27 25 25 24 21 21 26 25 25 28 36 42 48 49 49 49 52 56 57 61 64 66 67 69 71 73 73 73 74 75 74 72 69 69 68 68 68 68
28 29 30 29 30 28 26 23 22 21 18 18 24 26 25 29 36 41 45 48 50 52 55 57 59 64 66 67 68 68 71 72 73 73 74 74 75 73 71 70 68 70 67 67
25 27 28 28 28 25 25 22 20 23 17 16 28 22 27 40 42 45 45 49 49 54 58 56 62 66 67 66 67 68 70 72 73 72 74 74 72 68 70 71 70 68 68 68
23 26 28 27 26 26 23 21 19 14 15 16 14 24 30 39 44 47 46 49 50 56 58 59 63 65 66 67 68 69 70 73 74 74 73 71 72 72 71 72 72 67 68 66
26 28 25 25 19 19 20 21 17 16 20 20 15 24 25 41 44 45 46 49 50 59 59 61 64 65 66 67 67 69 73 74 73 70 68 68 71 72 72 71 70 69 68 68
22 27 23 21 21 21 20 18 18 15 19 17 18 25 33 38 41 45 45 49 52 58 59 63 65 67 68 69 70 71 71 70 68 68 68 69 69 68 67 65 66 66 68 68
23 23 22 22 24 27 22 19 16 19 26 19 23 25 36 42 45 45 45 49 54 58 60 63 65 67 67 68 69 69 69 68 68 71 71 69 66 64 61 62 63 65 66 67
25 23 23 20 20 28 28 25 18 16 19 28 24 31 42 43 46 47 47 50 58 61 63 64 65 68 69 69 70 71 70 70 68 67 63 63 64 64 63 63 65 66 67 67
37 22 24 20 23 22 23 27 29 19 22 26 25 28 38 41 46 48 50 54 59 63 65 64 64 67 69 69 72 72 72 71 69 66 63 65 65 65 63 65 67 67 68 68
25 26 24 22 18 16 22 23 30 27 26 27 30 27 38 40 44 48 51 57 61 64 64 63 62 67 69 70 71 71 72 73 72 69 70 67 68 69 69 69 69 70 69 67
26 29 29 25 24 22 17 23 25 28 28 30 28 28 41 46 47 49 52 56 61 64 64 64 64 66 68 68 67 68 71 70 68 67 67 69 70 71 70 70 70 70 69 67
24 23 29 26 29 23 22 22 25 26 28 29 27 31 43 44 49 49 52 57 60 63 65 65 64 64 65 65 67 68 70 69 68 68 68 69 70 70 70 70 70 69 68 67
24 27 28 22 33 25 27 37 29 27 30 32 35 37 39 48 52 53 53 56 59 64 64 65 63 60 63 65 65 69 69 69 67 68 67 68 69 70 70 71 69 69 68 68
21 26 29 27 27 24 31 36 37 36 30 34 36 37 41 52 56 60 58 58 62 64 65 62 61 61 64 66 68 69 66 67 66 66 67 69 70 69 69 68 68 68 68 67
31 30 27 30 24 23 26 35 38 40 32 34 39 41 45 53 45 60 62 62 64 64 65 64 65 62 63 65 67 68 66 66 67 69 69 69 69 68 68 68 67 67 66 65
35 36 32 32 25 25 41 42 42 37 41 47 49 51 53 55 60 63 64 63 63 63 63 65 65 65 67 67 67 66 66 65 66 66 67 66 65 65 64 65 64 64 63 62
41 36 33 38 33 30 43 44 40 49 53 53 55 56 59 62 62 63 64 63 64 64 64 65 63 64 66 67 65 64 62 62 63 63 62 62 62 59 57 61 60 60 59 58
36 42 40 40 42 50 47 52 52 51 57 58 59 59 61 61 62 63 62 61 60 59 60 64 63 62 60 61 61 60 60 60 60 60 59 58 58 57 57 58 57 53 56 52
49 50 42 46 44 45 47 50 51 53 52 58 59 59 59 60 61 60 60 59 59 61 61 60 59 58 57 58 58 58 57 57 56 56 55 55 55 54 55 52 51 50 50 50
48 51 47 47 49 47 47 48 49 51 53 54 59 59 57 57 56 58 60 61 61 61 60 59 59 58 57 57 55 54 55 56 54 53 53 52 50 52 52 52 51 50 52 48
49 47 42 39 46 48 50 49 49 51 53 54 58 60 58 57 58 61 60 62 62 61 60 59 59 57 55 53 54 55 54 54 54 50 49 48 48 47 47 47 47 50 48 47
Lifted_Index
3 1 -0 -1 -1 -0 -0 -0 0 0 -0 -1 -2 -2 -3 -4 -5 -6 -6 -6 -5 -5 -5 -5 -5 -5 -6 -6 -7 -7 -7 -7 -6 -6 -6 -6 -6 -5 -5 -4 -3 -3 -4 -4
3 1 -0 -1 -1 -1 -0 -0 -0 0 -0 -1 -2 -2 -3 -4 -5 -5 -6 -5 -5 -5 -5 -5 -5 -5 -5 -6 -7 -7 -7 -7 -7 -6 -6 -6 -6 -5 -4 -3 -2 -2 -3 -3
3 1 0 -0 -1 -1 -0 -0 -0 0 -0 -1 -1 -1 -2 -3 -4 -5 -5 -5 -5 -5 -5 -5 -5 -5 -5 -5 -6 -6 -7 -7 -6 -7 -7 -7 -6 -5 -3 -3 -2 -1 -2 -2
3 2 1 0 -0 -1 -0 0 0 -0 -0 -1 -1 -1 -1 -2 -3 -4 -4 -5 -4 -4 -4 -4 -4 -4 -4 -4 -5 -5 -6 -6 -6 -7 -7 -7 -6 -5 -4 -3 -3 -2 -3 -3
3 2 2 1 -0 -0 0 0 0 -0 -0 -0 -0 -0 -1 -1 -2 -2 -3 -4 -3 -3 -3 -3 -3 -3 -3 -4 -4 -5 -5 -6 -6 -6 -7 -7 -6 -5 -4 -4 -4 -4 -4 -4
2 2 2 1 0 0 1 0 -0 -0 -1 -1 -0 -0 -1 -1 -1 -2 -2 -3 -2 -2 -2 -2 -3 -3 -4 -3 -3 -4 -5 -5 -5 -6 -7 -7 -7 -6 -5 -5 -5 -5 -4 -4
3 2 2 2 1 1 1 0 -0 -1 -1 -1 -0 -0 -1 -1 -1 -1 -2 -2 -2 -2 -3 -3 -3 -4 -4 -4 -4 -3 -4 -4 -5 -6 -6 -7 -6 -6 -5 -5 -4 -4 -3 -3
3 2 2 2 1 1 0 -0 -1 -1 -1 -1 -0 -0 -0 -1 -1 -1 -1 -2 -2 -3 -3 -3 -4 -5 -5 -4 -4 -4 -4 -4 -5 -5 -6 -6 -5 -5 -4 -4 -4 -3 -3 -2
2 2 2 2 1 1 0 -0 -1 -1 -1 -1 -1 -0 -1 -1 -1 -1 -1 -2 -3 -4 -4 -4 -5 -5 -5 -5 -5 -4 -5 -5 -5 -5 -4 -4 -4 -4 -4 -4 -3 -2 -2 -2
2 1 1 2 1 1 0 -0 -0 -1 -1 -1 -1 -1 -1 -1 -2 -2 -1 -2 -3 -4 -5 -5 -5 -6 -6 -5 -5 -5 -6 -6 -5 -4 -3 -2 -3 -3 -3 -2 -2 -1 -1 -1
2 1 1 1 1 0 -0 -0 -1 -1 -1 -1 -1 -1 -1 -1 -2 -2 -1 -2 -3 -4 -5 -6 -6 -6 -6 -6 -6 -6 -6 -5 -4 -3 -3 -2 -2 -1 -0 0 0 0 0 -0
2 1 0 0 0 0 -0 -1 -1 -1 -1 -1 -1 -1 -1 -1 -2 -2 -2 -2 -4 -5 -6 -6 -6 -6 -6 -6 -6 -5 -5 -5 -4 -4 -3 -2 -1 0 1 1 1 1 1 0
2 1 -0 -0 -0 -0 -0 -0 -1 -1 -1 -1 -1 -1 -1 -2 -2 -2 -3 -3 -5 -6 -6 -6 -6 -6 -6 -6 -6 -6 -6 -5 -5 -4 -3 -2 -1 0 1 1 1 0 0 0
2 1 -0 -0 -0 -0 -0 -0 -0 -1 -1 -1 -1 -1 -1 -2 -2 -3 -3 -4 -6 -7 -7 -7 -6 -6 -7 -6 -6 -6 -6 -6 -4 -3 -2 -2 -1 -1 -0 -0 -1 -1 -0 -0
1 1 -0 -0 -0 -0 -0 -0 -0 -0 -0 -0 -0 -1 -1 -2 -2 -3 -4 -5 -6 -7 -7 -7 -6 -6 -7 -6 -6 -6 -6 -5 -4 -3 -3 -2 -2 -2 -2 -1 -2 -1 -1 -0
1 1 0 -0 0 0 0 -0 -0 -0 -0 -0 -0 -1 -1 -2 -2 -3 -4 -5 -7 -8 -8 -7 -6 -6 -6 -6 -5 -5 -5 -5 -3 -3 -3 -3 -3 -3 -3 -2 -2 -2 -1 -0
1 1 0 -0 -0 0 -0 -0 -0 -0 -0 -0 -1 -1 -2 -2 -3 -3 -3 -5 -6 -7 -8 -7 -6 -5 -5 -5 -5 -5 -5 -4 -3 -3 -3 -3 -4 -3 -3 -3 -2 -2 -1 -0
1 1 0 -0 -0 -0 -0 -1 -1 -0 -0 -1 -1 -1 -2 -3 -4 -4 -4 -4 -6 -7 -7 -6 -4 -4 -4 -5 -5 -5 -5 -4 -3 -3 -3 -3 -3 -3 -3 -3 -2 -1 -1 -0
1 1 0 -0 -0 -0 -1 -1 -1 -1 -1 -1 -1 -1 -2 -4 -4 -5 -4 -5 -5 -6 -5 -4 -3 -3 -4 -5 -6 -5 -5 -4 -4 -3 -3 -3 -3 -3 -2 -2 -1 -1 -0 -0
1 1 0 -0 -0 -1 -1 -1 -1 -1 -1 -1 -2 -2 -3 -4 -5 -5 -5 -4 -4 -4 -4 -3 -3 -3 -4 -5 -5 -5 -4 -4 -4 -3 -3 -3 -2 -1 -1 -0 0 1 1 1
-0 -0 -0 -1 -1 -1 -1 -1 -2 -2 -2 -3 -3 -4 -5 -5 -5 -5 -4 -4 -3 -3 -3 -2 -2 -3 -3 -4 -5 -4 -3 -2 -2 -2 -1 -0 0 1 1 2 2 3 3 3
-1 -1 -1 -1 -1 -1 -2 -2 -2 -3 -4 -5 -5 -5 -5 -5 -5 -5 -4 -4 -3 -3 -2 -2 -1 -1 -2 -3 -2 -1 -0 1 1 1 2 2 3 4 4 4 5 5 5 6
-2 -2 -2 -2 -2 -2 -2 -2 -3 -3 -4 -5 -5 -5 -5 -5 -5 -5 -4 -3 -3 -2 -2 -1 -1 -1 -0 0 1 1 2 3 3 4 4 5 6 6 6 6 6 7 7 7
-2 -2 -2 -2 -2 -2 -2 -2 -2 -3 -4 -5 -5 -5 -5 -5 -5 -4 -3 -2 -2 -2 -1 -1 -1 -0 1 2 2 3 4 5 5 6 6 6 7 7 7 7 7 8 8 8
-3 -3 -2 -2 -2 -2 -1 -1 -2 -2 -3 -4 -5 -5 -4 -4 -4 -4 -3 -3 -2 -1 -1 -1 -0 0 1 2 2 3 5 6 6 6 7 7 7 7 8 8 8 9 10 10
-3 -3 -2 -2 -1 -1 -1 -1 -1 -2 -3 -4 -4 -5 -4 -4 -4 -4 -4 -3 -2 -1 -1 -0 -0 0 1 2 2 4 6 7 7 7 7 7 7 8 8 8 9 10 10 10